Location: Plum
(40.5000°N, 79.7500°W)
Time: 14:21:08
(UTC-04:00)

Daily predictions for brighter satellites

Satellite Brightness Start Highest point End
(mag) Time Altitude Azimuth Time Altitude Azimuth Time Altitude Azimuth
ALOS 2.5 21:03:27 10° S 21:08:07 79° WSW 21:12:49 10° NNW
Cosmos 2369 Rocket 3.3 21:06:58 10° N 21:11:54 30° NE 21:16:46 10° ESE
ISS -3.1 21:10:57 10° WSW 21:14:12 76° NW 21:17:28 10° NE
Cosmos 1666 2.8 21:12:43 10° N 21:16:38 85° W 21:20:31 10° S
Cosmos 1602 Rocket 3.6 21:13:33 10° S 21:17:59 67° E 21:22:26 10° NNE
ATLAS 3B R/B 3.4 21:12:12 10° S 21:19:10 39° ESE 21:26:04 10° NE
USA 186 2.7 21:17:14 10° S 21:19:50 38° W 21:22:18 10° NNW
Cosmos 2058 Rocket 4.0 21:16:23 10° NNW 21:20:36 49° W 21:24:48 10° SSW
SL-16 R/B 4.1 21:17:56 10° SW 21:23:04 35° WNW 21:28:15 10° N
Cosmos 1812 Rocket 3.7 21:25:08 10° N 21:29:29 58° E 21:33:50 10° SSE
Tsikada Rocket 4.1 21:23:52 10° S 21:30:13 72° E 21:36:34 10° NNE
PSLV R/B 3.4 21:27:20 10° W 21:30:52 83° N 21:34:26 10° E
YAOGAN 6 4.4 21:32:00 11° ESE 21:34:33 19° ENE 21:37:15 10° NNE
CZ-2C R/B 1.5 21:33:57 10° S 21:36:08 41° W 21:38:20 10° NNW
SPOT 5 3.1 21:32:24 10° SE 21:36:28 43° ENE 21:40:34 10° N
H-2A R/B 2.2 21:37:15 10° S 21:41:31 80° WSW 21:45:56 10° NNW
USA 234 4.3 21:35:49 10° E 21:41:46 38° NNE 21:47:44 10° NW
Lacrosse 4 Rocket 1.8 21:38:33 10° S 21:42:16 37° ESE 21:46:03 10° NE
CZ-4 SHROUD 3.6 21:40:45 14° SSE 21:43:17 48° ENE 21:46:21 10° N
ERS-1 Rocket 3.3 21:38:54 10° S 21:43:53 66° WSW 21:48:53 10° NNW
deb Chang Zheng 4 3.8 21:39:51 10° N 21:44:15 75° WNW 21:48:35 10° SSW
Cosmos 2228 4.4 21:41:48 10° NNW 21:45:55 39° W 21:50:00 10° SSW
GEOS 3 Rocket 3.9 21:42:38 10° SSE 21:47:50 65° WSW 21:53:03 10° NW
Cosmos 1515 3.7 21:44:16 10° S 21:48:05 62° E 21:51:54 10° NNE
Cosmos 1626 Rocket 4.3 21:44:57 10° SSW 21:49:17 54° W 21:53:37 10° N
PSLV R/B 3.3 21:47:37 16° SSE 21:49:54 56° ENE 21:52:59 10° N
Meteor 2-12 Rocket 4.4 21:44:24 10° N 21:50:31 75° E 21:56:33 10° SSE
Cosmos 1066 Rocket 4.4 21:49:17 10° S 21:54:48 55° E 22:00:28 10° NNE
MetOp-A 4.3 21:52:37 14° SSE 21:57:05 59° ENE 22:02:20 10° N
Atlas Centaur 2 3.4 21:50:50 10° WSW 21:57:19 39° S 22:03:24 15° ESE
Envisat 3.0 21:54:15 11° SSE 21:59:11 90° W 22:04:18 10° NNW
Cosmos 1238 4.3 21:56:09 10° SSW 21:59:13 71° W 22:02:15 10° N
Cosmos 1634 Rocket 4.1 21:56:09 10° N 22:02:16 62° E 22:07:18 16° SSE
Cosmos 407 Rocket 3.7 21:57:16 10° S 22:02:23 52° ESE 22:07:26 10° NNE
USA 238 DEB 4.4 21:58:05 10° S 22:04:09 32° ESE 22:10:14 10° NE
USA 238 4.4 21:58:13 10° S 22:04:16 31° ESE 22:10:19 10° NE
Cosmos 1943 Rocket 3.3 22:00:28 10° N 22:05:23 31° ENE 22:08:55 17° ESE
Cosmos 1900 4.4 22:02:39 10° SSW 22:07:43 63° ESE 22:12:48 10° NE
Cosmos 1953 Rocket 3.7 22:06:21 16° S 22:09:46 56° E 22:14:08 10° NNE
SL-27 R/B 3.9 22:11:35 20° E 22:11:35 20° E 22:13:51 10° NE
Cosmos 1943 3.3 22:06:58 10° SSW 22:12:39 83° WNW 22:18:23 10° NNE
Cosmos-2242 4.4 22:09:28 10° NNE 22:13:05 24° ENE 22:14:41 20° ESE
Cosmos 2346 Rocket 4.4 22:11:06 10° S 22:17:18 83° E 22:23:27 10° N
Cosmos 1939 Rocket 4.1 22:13:58 10° SSW 22:17:52 39° W 22:21:46 10° NNW
Cosmos 1953 3.8 22:16:29 10° NNE 22:19:34 21° ENE 22:20:31 19° E
SL-08 RB Rocket 4.3 22:19:23 25° SE 22:21:34 43° ENE 22:25:50 10° N
Cosmos 2279 Rocket 4.3 22:15:56 10° N 22:22:02 52° ENE 22:25:43 24° SE
Cosmos 1954 Rocket 4.3 22:19:49 19° SSE 22:23:22 47° ESE 22:28:25 10° NNE
Cosmos 1346 Rocket 2.8 22:27:06 17° SSW 22:30:04 78° W 22:34:02 10° N
CZ-4C R/B 4.2 22:32:02 11° E 22:32:02 11° E 22:32:24 10° E
Cosmos 1842 3.5 22:35:17 38° SE 22:36:17 49° E 22:40:04 10° NNE
SeaSat 1 2.6 22:35:39 26° S 22:38:25 67° WSW 22:43:21 10° NNW
ARGOS 3.1 22:36:49 27° SSE 22:39:51 81° ENE 22:45:18 10° NNW
SL-23 DEB 4.3 22:36:46 10° SW 22:43:24 90° SSE 22:47:17 10° NE
Cosmos 1758 Rocket 3.6 22:40:28 21° SSW 22:43:24 75° W 22:47:46 10° N
Meteor 1-21 4.2 22:39:58 18° S 22:44:19 85° E 22:50:11 10° N
CARTOSAT-1 4.3 22:45:04 33° ESE 22:46:12 39° ENE 22:50:15 10° N
ISS -0.2 22:48:50 10° WNW 22:51:05 17° NNW 22:53:21 10° NNE
Geosat 4.1 22:46:55 10° NE 22:51:49 50° ESE 22:53:29 36° SSE
CZ-4B R/B 4.3 22:49:21 10° N 22:54:19 53° WNW 22:59:22 10° SSW
Cosmos 2369 Rocket 3.2 22:50:46 10° NW 22:56:00 40° WSW 22:59:13 21° SSW
Landsat 7 3.7 22:58:24 43° SSE 22:59:58 79° ENE 23:04:45 10° N
Cosmos 1766 3.7 22:57:51 10° NNW 23:01:48 57° W 23:03:02 38° SSW
Cosmos 1023 Rocket 4.4 22:59:57 35° S 23:02:08 69° ESE 23:07:23 10° NNE
Cosmos 1850 Rocket 4.1 23:01:16 42° SSE 23:02:34 52° ESE 23:07:38 10° NNE
CZ-4 R/B 4.5 23:00:38 10° N 23:05:33 58° WNW 23:09:21 17° SSW
H-2A R/B 2.0 23:04:51 44° SE 23:06:22 70° ENE 23:11:26 10° N
Cosmos 1570 Rocket 4.2 23:01:14 10° NNW 23:06:34 63° ENE 23:08:12 42° SE
DELTA 2 DEB (DPAF) 4.2 23:05:25 43° S 23:06:48 72° WSW 23:11:19 10° NNW
Cosmos 1758 3.2 23:03:34 10° N 23:07:43 76° E 23:08:15 63° SE
YAOGAN 6 4.4 23:06:29 21° SW 23:07:57 27° W 23:11:11 10° NW
NOAA 11 4.5 23:05:44 31° S 23:08:17 62° WSW 23:13:40 10° NNW
PSLV R/B 3.4 23:05:01 10° W 23:08:17 72° WSW 23:08:17 72° WSW
Cosmos 1140 Rocket 3.4 23:07:18 35° S 23:09:33 80° ESE 23:14:49 10° NNE
ATLAS 3B R/B 3.8 23:02:22 10° SW 23:09:49 51° NW 23:17:06 10° NNE
Spot 4 4.0 23:11:57 48° ESE 23:12:59 60° ENE 23:17:42 10° N
IGS 5A 3.4 23:12:41 60° ESE 23:13:10 67° ENE 23:17:18 10° N
Cosmos 1842 Rocket 3.7 23:10:34 10° N 23:14:54 57° E 23:15:21 54° ESE
Terra 1.7 23:14:42 53° SSE 23:15:47 80° ENE 23:20:33 10° N
Cosmos 1340 4.0 23:17:41 27° ENE 23:17:41 27° ENE 23:20:08 10° NNE
NOSS 3-2 (A) 3.9 23:20:30 39° ESE 23:20:54 39° ESE 23:26:52 10° NE
Lacrosse 4 Rocket 4.0 23:18:08 10° W 23:21:08 20° NW 23:24:10 10° N
SAR-Lupe-2 3.7 23:23:38 67° W 23:23:38 67° W 23:27:08 10° NNW
Cosmos 1544 3.7 23:20:39 10° N 23:23:55 48° NE 23:23:55 48° NE
Cosmos 2084 3.4 23:20:12 10° NW 23:24:21 66° WSW 23:24:37 64° SSW
USA 234 3.2 23:21:50 40° SSE 23:24:26 75° SW 23:31:02 10° NW
Cosmos 1470 3.5 23:24:38 10° N 23:27:56 41° ENE 23:27:56 41° ENE
Cosmos 1092 Rocket 4.0 23:27:08 45° SSE 23:29:06 69° E 23:35:21 10° NNE
Cosmos 1805 3.4 23:25:55 10° NNW 23:29:50 66° W 23:29:59 65° WSW
Lacrosse 5 4.5 23:27:48 10° NNW 23:30:56 16° NNE 23:34:03 10° ENE
Cosmos 614 Rocket 3.8 23:30:46 56° S 23:31:51 79° ESE 23:37:05 10° NNE
COSMOS 2406 3.5 23:33:42 24° SW 23:37:11 66° WNW 23:42:55 10° NNE
Nadezhda 4 Rocket 4.1 23:34:52 36° SSW 23:37:37 77° W 23:43:59 10° N
DMSP B5D2-2 4.3 23:38:19 10° N 23:43:33 67° WNW 23:45:23 40° SW
Atlas Centaur 2 3.7 23:39:41 10° WSW 23:46:02 32° SSW 23:46:02 32° SSW
Cosmos 2221 3.3 23:43:57 10° N 23:47:39 40° ENE 23:47:39 40° ENE
Cosmos 2082 Rocket 4.1 23:49:20 16° E 23:49:20 16° E 23:51:37 10° ENE
Cosmos 1943 Rocket 3.1 23:44:06 10° NW 23:49:08 37° WSW 23:50:26 32° SW
SL-8 R/B 3.6 23:44:26 10° WNW 23:49:18 84° NNE 23:49:39 76° E
COSMOS 2487 3.4 23:54:06 48° NNW 23:54:06 48° NNW 23:56:56 10° NNE
Cosmos 1953 4.0 23:52:41 10° NW 23:55:59 25° W 23:56:18 25° W
